Location: Fishcreek Rd Observing Site
(41.1865°N, 81.4271°W)
Time: 16:43:31
(UTC-04:00)

Iridium 75 - Visible Passes

Search period start: 18 April 2014 00:00
Search period end: 28 April 2014 00:00
Orbit: 776 x 779 km, 86.4° (Epoch: 18 April)

Date Brightness Start Highest point End Pass type
(mag) Time Alt. Az. Time Alt. Az. Time Alt. Az.
18 Apr 6.9 21:36:38 10° NNE 21:41:11 30° E 21:42:25 27° ESE visible
18 Apr 7.5 23:17:20 10° NNW 23:21:50 30° W 23:22:54 28° WSW visible
19 Apr 7.6 21:04:04 10° NE 21:07:23 17° ENE 21:09:22 14° E visible
19 Apr 6.5 22:43:23 10° NNW 22:48:29 56° W 22:49:52 43° SW visible
20 Apr 5.9 22:09:46 10° N 22:15:00 80° E 22:16:50 42° SSE visible
20 Apr 8.7 23:53:16 10° WNW 23:54:56 12° WNW 23:56:37 10° W visible
21 Apr 6.4 21:36:27 10° N 21:41:24 43° E 21:43:50 26° SE visible
21 Apr 8.1 23:17:55 10° NNW 23:21:47 22° W 23:24:20 15° WSW visible
22 Apr 7.2 21:03:30 10° NNE 21:07:40 24° ENE 21:10:51 14° ESE visible
22 Apr 7.2 22:43:42 10° NNW 22:48:30 39° W 22:51:21 21° SW visible
23 Apr 6.2 22:09:54 10° N 22:15:06 72° W 22:18:24 23° S visible
24 Apr 6.0 21:36:23 10° N 21:41:34 62° E 21:45:28 18° SSE visible
24 Apr 8.6 23:18:50 10° NW 23:21:41 15° WNW 23:24:31 10° WSW visible
25 Apr 6.7 21:03:11 10° NNE 21:07:55 34° E 21:12:34 10° SE visible
25 Apr 7.9 22:44:09 10° NNW 22:48:28 27° W 22:52:46 10° SW visible
26 Apr 6.9 22:10:07 10° NNW 22:15:08 49° W 22:20:07 10° SSW visible
27 Apr 6.0 21:36:26 10° N 21:41:41 90° E 21:46:53 10° S visible
